User: anonymous   Login
Location: Fort Wayne
(41.1310°N, 85.1290°W)
Time: 19:22:50
(UTC-05:00)
Language:

Cosmos 2056 Rocket - Orbit

View from above orbital plane
View from above orbital plane
View from above satellite
View from above satellite

Ground track
Ground track

The orbit data is extracted from the following two-line orbital elements,

1 20433U 90004B   14328.45913034  .00000285  00000-0  10662-3 0  8736
2 20433 074.0370 273.7108 0042441 271.3142 228.6925 14.35719816300897
Epoch (UTC): 24 November 2014 11:01:08
Eccentricity: 0.0042441
inclination: 74.0370°
perigee height: 742 km
apogee height: 803 km
right ascension of ascending node: 273.7108°
argument of perigee: 271.3142°
revolutions per day: 14.35719816
mean anomaly at epoch: 228.6925°
orbit number at epoch: 30089

The dashed part of the orbit path shows where the satellite is in the earth's shadow,  

DLR